User: anonymous   Login
Location: Unspecified
(0.0000°N, 0.0000°E)
Time: 03:27:44
(UTC+00:00)
Language:

GALILEO 7 (263) - Orbit

View from above orbital plane
View from above orbital plane
View from above satellite
View from above satellite

Ground track
Ground track

The orbit data is extracted from the following two-line orbital elements,

1 40544U 15017A   17108.16272652 -.00000004 +00000-0 +00000-0 0  9994
2 40544 055.5724 073.6906 0003882 273.3672 086.5650 01.70475238012144
Epoch (UTC): 18 April 2017 03:54:19
Eccentricity: 0.0003882
inclination: 55.5724°
perigee height: 23210 km
apogee height: 23233 km
right ascension of ascending node: 73.6906°
argument of perigee: 273.3672°
revolutions per day: 1.70475238
mean anomaly at epoch: 86.5650°
orbit number at epoch: 1214

The dashed part of the orbit path shows where the satellite is in the earth's shadow,  

DLR